Location: Brno
(49.2000°N, 16.6330°E)
Time: 02:09:25
(UTC+02:00)

RESURS DK-1 - Visible Passes

Search period start: 02 April 2015 00:00
Search period end: 12 April 2015 00:00
Orbit: 560 x 566 km, 69.9° (Epoch: 01 April)

Date Brightness Start Highest point End Pass type
(mag) Time Alt. Az. Time Alt. Az. Time Alt. Az.
02 Apr 4.3 20:06:47 10° N 20:09:27 16° NE 20:12:11 10° E visible
02 Apr 2.2 21:44:01 10° NNW 21:48:12 85° WSW 21:48:31 75° S visible
03 Apr 4.0 20:05:56 10° N 20:09:01 20° NE 20:12:09 10° E visible
03 Apr 2.6 21:43:26 10° NW 21:47:33 63° WSW 21:48:15 53° SSW visible
04 Apr 3.8 20:05:07 10° N 20:08:33 24° NE 20:12:00 10° ESE visible
04 Apr 3.1 21:42:54 10° NW 21:46:55 46° WSW 21:48:02 36° SSW visible
05 Apr 3.4 20:04:21 10° NNW 20:08:04 30° NE 20:11:46 10° ESE visible
05 Apr 3.7 21:42:26 10° NW 21:46:14 35° WSW 21:47:53 25° SSW visible
06 Apr 3.1 20:03:38 10° NNW 20:07:32 38° NE 20:11:26 10° ESE visible
06 Apr 4.2 21:42:02 10° NW 21:45:32 26° WSW 21:47:47 16° SSW visible
07 Apr 2.7 20:02:56 10° NNW 20:06:59 50° NE 20:11:01 10° SE visible
07 Apr 4.6 21:41:44 10° WNW 21:44:49 20° WSW 21:47:46 10° SSW visible
08 Apr 2.4 20:02:16 10° NNW 20:06:25 66° ENE 20:10:31 10° SE visible
08 Apr 5.0 21:41:37 10° WNW 21:44:05 15° WSW 21:46:23 10° SW visible
09 Apr 2.4 20:01:37 10° NNW 20:05:48 87° ENE 20:09:56 10° SSE visible
09 Apr 5.3 21:42:00 10° W 21:43:19 11° WSW 21:44:25 10° WSW visible
